www.pogodaiklimat.ru

Погода и климат >> Архив погоды >> Южная Африка >> Портервилл


ПОГОДА в Портервилле

  • Прогноз погоды в Портервилле
  • Монитор погоды в Портервилле

АРХИВ ПОГОДЫ в Портервилле

Время (UTC), дата Ветер
(напр.,м/с)
 
Видим.   Явления Облачность Т
(С)
Тd
(С)
f
(%)
Тe
(С)
Тes
(С)
Комфортность P
(гПа)
Po
(гПа)
Тmin
(С)
Tmax
(С)
R
(мм)
R24
(мм)
S
(см)
15 14.05 штиль 0 н/о н/о +25.9 +12.2 43 +27 +27 жарко 997.2 +25.7 +29.7
18 14.05 В 1 н/о н/о +20.0 +11.0 56 +23 +23 комфорт 999.3 +19.5 +29.7
21 14.05 С 2 н/о н/о +18.8 +11.7 63 +20 +20 998.6 +17.9 +29.7
00 15.05 С 2 н/о н/о +14.4 +11.9 85 +14 +14 1002.3 +13.7 +29.7
03 15.05 штиль 0 н/о н/о +13.3 +11.7 90 +13 +13 1001.8 +13.1 +29.7
06 15.05 СВ 1 н/о н/о +13.8 +12.5 92 +14 +14 1003.9 +10.7
09 15.05 ЮЗ 2 н/о н/о +17.2 +14.3 83 +17 +17 1004.4 +10.7 +17.5
12 15.05 Ю 2 н/о н/о +20.2 +13.2 64 +23 +23 комфорт 1003.4 +10.7 +20.7
15 15.05 Ю 1 н/о н/о +21.2 +10.8 51 +23 +23 комфорт 1003.1 +20.7 +22.7
18 15.05 Ю 1 н/о н/о +15.2 +8.0 62 +16 +16 1003.8 +15.0 +22.7
21 15.05 СЗ 1 н/о н/о +10.1 +7.5 84 +10 +10 1004.1 +9.8 +22.7
00 16.05 ЮВ 1 н/о н/о +10.3 +7.9 85 +10 +10 1003.2 +9.7 +22.7
03 16.05 СВ 2 н/о н/о +9.3 +7.4 88 +8 +8 1002.5 +6.8 +22.7
06 16.05 ЮЗ 1 н/о н/о +9.6 +7.7 88 +9 +9 1002.4 +6.8
09 16.05 ЮЗ 1 н/о н/о +18.7 +9.5 55 +20 +20 1002.1 +6.8 +18.8
12 16.05 ЮЗ 1 н/о н/о +25.6 +6.5 29 +25 +25 комфорт 999.7 +6.8 +25.6
15 16.05 ЮВ 1 н/о н/о +24.1 +8.3 36 +25 +25 комфорт 999.0 +24.1 +26.0
18 16.05 штиль 0 н/о н/о +13.4 +8.3 71 +13 +13 999.1 +13.2 +26.0
21 16.05 СВ 2 н/о н/о +10.4 +6.9 79 +9 +9 999.6 +9.8 +26.0
00 17.05 СВ 1 н/о н/о +10.2 +6.5 78 +10 +10 998.7 +8.9 +26.0
03 17.05 С 3 н/о н/о +10.7 +5.8 72 +9 +9 996.8 +7.2 +26.0
06 17.05 В 1 н/о н/о +11.2 +7.1 76 +11 +11 998.1 +7.2
09 17.05 ЮЗ 2 н/о н/о +23.6 +5.7 31 +24 +24 комфорт 998.5 +7.2 +24.7
12 17.05 Ю 3 н/о н/о +24.4 +8.5 36 +25 +25 комфорт 997.4 +7.2 +24.9
15 17.05 ЮЗ 3 н/о н/о +18.8 +11.4 62 +20 +20 999.4 +18.8 +24.9
18 17.05 С 4 н/о н/о +14.2 +10.4 78 +13 +13 1001.3 +14.2 +24.9
21 17.05 С 5 н/о н/о +14.5 +9.9 74 +13 +13 1003.1 +13.0 +24.9
00 18.05 С 3 н/о н/о +14.3 +8.7 69 +13 +13 1002.9 +13.0 +24.9
03 18.05 С 3 н/о н/о +15.8 +8.6 62 +16 +16 1002.1 +13.0 +24.9
06 18.05 СВ 2 н/о н/о +15.1 +9.5 69 +15 +15 1003.1 +13.0
09 18.05 ЮЗ 1 н/о н/о +20.3 +9.3 49 +23 +23 комфорт 1003.2 +13.0 +20.4
12 18.05 СЗ 1 н/о н/о +22.8 +9.4 42 +24 +24 комфорт 1000.8 +13.0 +22.8
15 18.05 Ю 1 н/о н/о +22.8 +8.6 40 +24 +24 комфорт 999.3 +21.6 +23.6
18 18.05 Ю 2 н/о н/о +15.8 +10.4 70 +16 +16 999.6 +14.9 +23.6
21 18.05 штиль 0 н/о н/о +10.3 +7.9 85 +10 +10 999.1 +10.3 +23.6
00 19.05 штиль 0 н/о н/о +7.3 +5.6 89 +6 +6 997.2 +7.3 +23.6
03 19.05 В 1 н/о н/о +6.8 +5.5 91 +6 +6 997.2 +6.5 +23.6
06 19.05 СВ 1 н/о н/о +8.3 +7.0 92 +7 +7 997.2 +6.5
09 19.05 З 2 н/о н/о +18.7 +10.3 58 +20 +20 997.5 +6.5 +18.7
12 19.05 ЮЗ 6 н/о н/о +20.4 +10.9 54 +22 +22 комфорт 997.4 +6.5 +22.7
15 19.05 С 5 н/о н/о +18.3 +9.7 57 +18 +18 998.2 +18.3 +22.7
18 19.05 СЗ 5 н/о н/о +14.0 +9.8 76 +12 +12 999.3 +14.0 +22.7
21 19.05 СЗ 5 н/о н/о +14.9 +10.5 75 +13 +13 999.7 +13.6 +22.7
00 20.05 СЗ 7 н/о н/о +14.7 +12.4 86 +13 +13 998.2 +13.6 +22.7 0.2
03 20.05 СЗ 6 н/о н/о +14.5 +12.8 90 +13 +13 998.9 +13.6 +22.7
06 20.05 С 6 н/о н/о +14.1 +12.6 91 +12 +12 1000.4 +13.6 14
09 20.05 СВ 3 н/о н/о +13.2 +11.7 91 +12 +12 1003.6 +13.0 +14.1
12 20.05 ЮЗ 3 н/о н/о +16.6 +8.3 58 +16 +16 1005.0 +13.0 +16.6 12
15 20.05 ЮЗ 2 н/о н/о +14.7 +8.7 67 +14 +14 1006.7 +14.7 +17.2
18 20.05 СВ 1 н/о н/о +9.6 +7.7 88 +9 +9 1008.4 +9.1 +17.2 13
21 20.05 С 3 н/о н/о +11.1 +7.9 81 +9 +9 1009.6 +9.1 +17.2
00 21.05 С 3 н/о н/о +11.5 +8.0 79 +10 +10 1009.9 +9.1 +17.2 13
03 21.05 С 2 н/о н/о +10.4 +7.4 82 +9 +9 1009.6 +9.1 +17.2
06 21.05 штиль 0 н/о н/о +10.2 +8.3 88 +9 +9 1010.1 +9.1 13
09 21.05 СЗ 3 н/о н/о +16.0 +8.8 62 +16 +16 1010.9 +9.1 +16.2
12 21.05 ЮЗ 1 н/о н/о +18.3 +7.8 50 +20 +20 1009.0 +9.1 +18.5

 

Местоположение метеостанции Портервилл (Южная Африка): широта -30.01 долгота 18.98 высота над уровнем моря 123 м.

В архиве по умолчанию представлена погода в Портервилле за последнюю неделю. Архивные данные за месяц целиком и за предыдущие месяцы, начиная с января 2011 года, Вы можете получить, выбрав интересующий диапазон дат из раскрывающегося списка и нажав кнопку "Ввод!".


*Определитесь, кто Вы:
робот инопланетянин человек

Внимание! Время в таблицах - всемирное. Для получения местного времени необходимо прибавить поправку, которая равна 2 ч.

Смотрите также архив погоды в соседних городах и на ближайших метеорологических станциях:

Погода в Пофаддере (Южная Африка) (105 км)
Погода в Спрингбоке (Южная Африка) (111 км)
Погода в Ниеувоудтвилле (Южная Африка) (148 км)
Погода в Брандвлее (Южная Африка) (153 км)
Погода в Коингнаасе (Южная Африка) (165 км)
Погода в Кальвинии (Южная Африка) (178 км)
Погода в Фридендале (Южная Африка) (189 км)
Погода в Виулсдрифе (Южная Африка) (198 км)
Погода на Ауграбисе (Южная Африка) (205 км)
Погода в Порт Ноллоз (Южная Африка) (222 км)

Пояснения к столбцам:

Ветер - указаны скорость ветра в м/с - средняя за 10 мин, порывы в срок и между сроками (в фигурных скобках) и направление, откуда дует ветер: С - северный, СВ - северо-восточный, В - восточный, ЮВ - юго-восточный, Ю - южный, ЮЗ - юго-западный, З - западный, СЗ - северо-западный.
Видимость - горизонтальная дальность видимости в метрах или километрах. При видимости от 1 до 10 км при отсутствии осадков обычно наблюдается дымка, при ухудшении видимости до 1 км и менее - туман. В сухую погоду видимость может ухудшаться дымом, пылью или мглою.
Явления - указаны атмосферные явления, наблюдавшиеся в срок или в последний час перед сроком; фигурными скобками обозначены явления, наблюдавшиеся между сроками (за 1-3 часа до срока); квадратными скобками обозначены град или гололедные отложения с указанием их диаметра в мм.
Облачность - указаны через наклонную черту общая и нижняя облачность в баллах и высота нижней границы облаков в метрах; квадратными скобками обозначены формы облаков: Ci - перистые, Cs - перисто-слоистые, Cc - перисто-кучевые, Ac - высококучевые, As - высокослоистые, Sc - слоисто-кучевые, Ns - слоисто-дождевые, Cu - кучевые, Cb - кучево-дождевые. Подробнее классификацию облаков см. в Атласе облаков (PDF).
T - Температура воздуха - температура, измеренная на высоте 2 м над землей.
Td - Температура точки росы - температура, при понижении до которой содержащийся в воздухе водяной пар достигнет насыщения.
f - Относительная влажность воздуха - влажноcть воздуха, измеренная на высоте 2 м над землей.
Te - Эффективная температура - температура, которую ощущает одетый по сезону человек в тени. Характеристика душности погоды. При расчете учитывается влияние влажности воздуха и скорости ветра на теплоощущения человека.
Tes - Эффективная температура на солнце - температура, которую ощущает человек, с поправкой на солнечный нагрев. Характеристика знойности погоды. Зависит от высоты солнца над горизонтом, облачности и скорости ветра. Ночью, в пасмурную погоду, а также при ветре 12 м/с и более поправка равна нулю.
P - Атмосферное давление - приведенное к уровню моря атмосферное давление.
Po - Атмосферное давление - измеренное на уровне метеостанции атмосферное давление.
Tmin - Минимальная температура - минимум температуры воздуха на высоте 2 м над землей.
Tmax - Максимальная температура - максимум температуры воздуха на высоте 2 м над землей.
R - Количество осадков - Количество выпавших осадков за период времени, мм. При наведении курсора мыши на число - период времени, за который выпало указанное количество осадков.
R24 - Количество осадков - Количество выпавших осадков за 24 часа, мм.
S - Снежный покров - Высота снежного покрова, см. При наведении курсора мыши на число - состояние снежного покрова и степень покрытия местности в баллах.